Date,TemperatureHighF,TemperatureAvgF,TemperatureLowF,DewpointHighF,DewpointAvgF,DewpointLowF,HumidityHigh,HumidityAvg,HumidityLow,PressureMaxIn,PressureMinIn,WindSpeedMaxMPH,WindSpeedAvgMPH,GustSpeedMaxMPH,PrecipitationSumIn
2013-5-1,89,75,59,30,19,9,26,14,5,30.07,29.87,10,2,19,0.00
2013-5-2,70,60,49,37,30,23,56,34,20,30.46,30.07,14,6,24,0.00
2013-5-3,68,55,42,28,21,9,54,30,10,30.48,30.07,11,5,24,0.00
2013-5-4,83,65,41,25,17,10,49,20,7,30.07,29.90,10,3,16,0.00
2013-5-5,84,74,64,27,18,11,18,12,8,30.14,29.96,14,7,25,0.00
2013-5-6,82,72,62,42,30,19,46,23,12,30.10,29.98,11,3,24,0.00
2013-5-7,82,69,54,36,28,13,45,24,8,30.12,29.95,9,3,17,0.00
2013-5-8,82,69,55,34,23,8,40,20,6,30.11,29.98,9,2,21,0.00
2013-5-9,82,69,52,32,26,17,41,22,9,30.08,29.98,11,2,19,0.00
2013-5-10,77,65,55,54,39,-100,87,43,22,30.25,30.04,13,4,20,0.13
2013-5-11,77,63,49,52,42,-100,97,55,20,30.35,30.24,12,4,22,0.13
2013-5-12,80,68,54,45,37,-100,70,37,16,30.37,30.19,9,3,17,0.00
2013-5-13,84,69,51,43,30,5,66,30,5,30.33,30.16,10,3,19,0.00
2013-5-14,85,71,52,44,36,27,65,32,13,30.21,30.00,8,2,16,0.00
2013-5-15,92,75,57,44,32,20,59,28,8,30.10,29.91,12,3,28,0.00
2013-5-16,93,72,57,40,11,-100,47,19,5,30.07,29.91,9,2,20,0.00
2013-5-17,94,76,57,38,21,-100,42,19,5,30.04,29.92,8,2,14,0.00
2013-5-18,90,76,60,30,18,4,32,13,4,30.06,29.90,11,3,23,0.00
2013-5-19,88,74,56,29,21,11,31,15,6,30.04,29.86,13,3,26,0.00
2013-5-20,89,76,56,35,23,9,43,17,5,30.02,29.84,16,4,27,0.00
2013-5-21,88,74,58,33,21,5,38,16,5,30.09,29.92,10,3,26,0.00
2013-5-22,94,75,52,35,19,5,47,17,4,30.00,29.87,10,2,16,0.00
2013-5-23,98,81,61,49,23,10,40,15,4,30.04,29.86,13,2,22,0.00
2013-5-24,94,78,59,54,40,18,73,33,7,30.14,29.96,9,3,14,0.00
2013-5-25,96,83,67,58,33,8,68,26,4,30.13,29.95,10,4,19,0.00
2013-5-26,94,80,61,32,16,2,34,11,3,30.13,29.97,11,3,22,0.00
2013-5-27,95,77,57,32,14,-8,34,12,2,30.04,29.87,8,2,26,0.00
2013-5-28,93,78,57,32,14,-2,33,13,3,29.90,29.72,11,3,19,0.00
2013-5-29,89,78,65,34,24,9,25,14,7,29.88,29.73,13,4,25,0.00
2013-5-30,93,80,65,38,31,26,34,19,10,29.99,29.83,10,3,23,0.00
2013-5-31,97,82,64,39,30,18,37,18,6,30.04,29.87,8,2,19,0.00